STARLINK-32322, 61720

Orbit data source: Space-Track

STARLINK-32322, 61720 is a payload satellite owned by SpaceX/Seattle (US) in LEO that was launched on Wed, 30 Oct 2024 UTC via an FALCON 9 launch vehicle from the Air Force Eastern Test Range (AFETR). Payload-class satellites include a variety of spacecraft equipped with specific instruments for various scientific and technological missions. These include communications satellites like Starlink; space stations such as the ISS; scientific satellites like the Hubble; Earth observation satellites from companies like Planet Labs, Umbra, and HawkEye 360; GPS; miniature CubeSats for education and research; and military/defense satellites.

Loading next visibility...
Identifier
61720, 2024-196P
Orbit
LEO
Country
Flag of USUS
Related business
Manufacturer
SpaceX/Seattle
Mission
Operational Commercial Communications
Bus & Motor
STARLINK V2M, Unknown motor
Mass
730 kg wet, ~700 kg dry
Launch date (UTC)
2024-10-30 (1 year ago)
Launch vehicle
FALCON 9
Launch site
Air Force Eastern Test Range (AFETR)
Object type
Payload
Rocket body
Debris
Shape & HBR
Box + 2 Pan, 17.7 m
Radar Cross Section
33.884 m², Large (>1 m²)

Expand to show TLE details & history
Last TLE update: 2 days ago

TLE from 2 days ago
0 STARLINK-32322
1 61720U 24196P   25289.48424433  .00000703  00000-0  35870-4 0  9993
2 61720  53.1601  51.4753 0001281  86.5213 273.5935 15.30190975 55077
Epoch: 2025-10-16T11:37Z
TLE epoch observation values (Epoch: 2025-10-16T11:37:18.710Z)
Latitude
0.00006°
Longitude
-148.09592°
Altitude
476.087 km
Speed
7.629 km/s
True Right ascension
03h 25m 54s
True Declination
0° 00' 00"
Sunlit
Object was in full shadow at epoch
Visualization orbit readout
Latitude
Unknown
Longitude
Unknown
Altitude
Unknown
Speed
Unknown
Apparent Right ascension
Unknown
Apparent Declination
Unknown
Sunlit
N/A
Visualization observer readout
Local Sidereal Time
06:05:05
Azimuth
Unknown
Elevation
Unknown
Doppler factor
Unknown
Orbital elements
Apogee altitude
476.376 km
Perigee altitude
474.62 km
Semi-major axis
6,853.635 km
Eccentricity
0.00013
Inclination
53.1601°
RAAN
51.4753°
Arg. of periapsis
86.5213°
True anomaly
273.57885°
Mean anomaly
273.5935°
Eccentric anomaly
273.58617°
Mean motion
3.82527 °/min
Orbital period
94.11 mins
BSTAR
0.00003587
Loading maneuver chart data...
Computing Atmospheric mass density...
Loading historical data...
Loading historical data...
Loading historical data...
Loading historical data...
Loading historical data...
Loading historical data...
Loading historical data...

Documentation

Showing up to 5 results
|